Simultaneous Nadir Overpasses (SNOs) Predictions

Prediction of SNOs between GOES-17 and NOAA-20 Satellite Orbit:

Table of predicted SNOs for the next 14.0 days since TLE Epoch: 7/24/2020
Index Date Time (GOES-17) GOES-17 Lat,Lon NOAA-20 Lat,Lon Distance(km) Time Diff (sec)
1 07/25/2020 10:52:14 0.00,-137.20 0.91,-141.38 476.63 80
2 07/26/2020 10:30:48 0.00,-137.20 -0.08,-136.85 39.95 80
3 07/28/2020 22:33:58 -0.01,-137.19 -0.12,-137.61 49.00 80
4 07/29/2020 22:17:53 -0.01,-137.18 0.93,-133.09 467.11 80
5 07/31/2020 10:39:40 0.01,-137.18 0.29,-138.35 133.73 80
6 08/01/2020 10:18:14 0.02,-137.17 -0.71,-133.81 381.92 80
7 08/02/2020 22:40:10 -0.02,-137.15 -0.48,-139.11 224.64 80
8 08/03/2020 22:24:05 -0.02,-137.13 0.57,-134.59 290.86 80
9 08/05/2020 10:45:51 0.02,-137.13 0.64,-139.85 310.63 80
10 08/06/2020 10:24:27 0.02,-137.11 -0.41,-135.32 204.68 80
